FENGYUN 1C DEB, 37594

Orbit data source: Space-Track

FENGYUN 1C DEB, 37594 is space debris in SSO originally from a launch on Mon, 10 May 1999 UTC launched from the Taiyaun Space Center, China (TSC). Fengyun 1C debris stems from the Chinese weather satellite Fengyun-1C, which was intentionally destroyed by a Chinese anti-satellite missile in 2007. This event dramatically increased the amount of space debris, with thousands of trackable fragments posing hazards to satellites and human spaceflight. The Fengyun 1C debris cloud has become a focal point in discussions about space sustainability and the need for international regulations to prevent the creation of new debris.

Loading next visibility...
Identifier
37594, 1999-025EKN
Orbit
SSO
Country
Flag of CNCN / PRC
Related business
Manufacturer
Unknown
Mission
Spacecraft
Bus & Motor
Unknown
Mass
Unknown
Launch date (UTC)
1999-05-10 (27 years ago)
Launch vehicle
Unknown
Launch site
Taiyaun Space Center, China (TSC)
Object type
Payload
Rocket body
Debris
Shape & HBR
Unknown shape, 0.1 m
Radar Cross Section
Small (<0.1 m²)

Expand to show TLE details & history
Last TLE update: 2 days ago

TLE from 2 days ago
0 FENGYUN 1C DEB
1 37594U 99025EKN 26149.51161767  .00000484  00000-0  28130-3 0  9992
2 37594  98.7135 179.1386 0086517 152.8714 207.7018 14.11280430801281
Epoch: 2026-05-29T12:16Z
TLE epoch observation values (Epoch: 2026-05-29T12:16:43.766Z)
Latitude
0.00002°
Longitude
107.91529°
Altitude
913.429 km
Speed
7.367 km/s
True Right ascension
11h 56m 33s
True Declination
0° 00' 00"
Sunlit
Object was in daylight at epoch
Visualization orbit readout
Latitude
Unknown
Longitude
Unknown
Altitude
Unknown
Speed
Unknown
Apparent Right ascension
Unknown
Apparent Declination
Unknown
Sunlit
N/A
Visualization observer readout
Local Sidereal Time
19:47:57
Azimuth
Unknown
Elevation
Unknown
Doppler factor
Unknown
Orbital elements
Apogee altitude
914.718 km
Perigee altitude
789.609 km
Semi-major axis
7,230.301 km
Eccentricity
0.00865
Inclination
98.7135°
RAAN
179.1386°
Arg. of periapsis
152.8714°
True anomaly
207.2453°
Mean anomaly
207.7018°
Eccentric anomaly
207.47311°
Mean motion
3.53028 °/min
Orbital period
101.98 mins
BSTAR
0.0002813
Loading maneuver chart data...
Computing Atmospheric mass density...
Loading historical data...
Loading historical data...
Loading historical data...
Loading historical data...
Loading historical data...
Loading historical data...
Loading historical data...

Documentation

Showing up to 5 results
|